Location: Morisset
(33.1080°S, 151.4871°E)
Time: 09:10:06
(UTC+00:00)

SL-08 R/B - Pass Details

Date: 29 October 2020
Orbit: 675 x 738 km, 98.4° (Epoch: 27 November)

Event Time Altitude Azimuth Distance (km) Brightness Sun altitude
Rises 17:46:53 0° 169° (S) 3,075 7.2 -14.4°
Reaches altitude 10° 17:49:09 10° 170° (S) 2,146 6.3 -14.0°
Maximum altitude 17:53:50 81° 255° (WSW) 696 3.2 -13.1°
Drops below altitude 10° 17:58:26 10° 343° (NNW) 2,109 5.4 -12.2°
Enters shadow 17:59:23 - 343° (NNW) 2,495 5.8 -12.0°
